COSMOS 2251 DEB, 40808

Orbit data source: Space-Track

COSMOS 2251 DEB, 40808 is space debris in LEO originally from a launch on Wed, 16 Jun 1993 UTC launched from the Plesetsk Missile And Space Complex (PKMTR). The debris from Iridium 33, an American commercial communications satellite, has been tracked extensively since its accidental collision with the defunct Russian satellite Cosmos 2251 in 2009. This event, occurring at high speed in low Earth orbit (LEO), generated thousands of pieces of space debris, significantly increasing the risk of further collisions. The Iridium 33 debris cloud has impacted space traffic management and orbital debris mitigation strategies, making it a subject of ongoing study in space situational awareness.

Loading next visibility...
Identifier
40808, 1993-036BWM
Orbit
LEO
Country
Flag of CISCIS
Related business
Manufacturer
Unknown
Mission
Spacecraft
Bus & Motor
Unknown
Mass
Unknown
Launch date (UTC)
1993-06-16 (33 years ago)
Launch vehicle
Unknown
Launch site
Plesetsk Missile And Space Complex (PKMTR)
Object type
Payload
Rocket body
Debris
Shape & HBR
Unknown shape, 0.1 m
Radar Cross Section
Small (<0.1 m²)

Expand to show TLE details & history
Last TLE update: 1 day ago

TLE from 1 day ago
0 COSMOS 2251 DEB
1 40808U 93036BWM 26256.65965888  .00004357  00000-0  70602-3 0  9994
2 40808  74.0418 332.7481 0010918 304.2739 207.9176 14.71507307676580
Epoch: 2026-09-13T15:49Z
TLE epoch observation values (Epoch: 2026-09-13T15:49:54.527Z)
Latitude
26.75006°
Longitude
-85.62232°
Altitude
666.032 km
Speed
7.523 km/s
True Right ascension
09h 38m 01s
True Declination
26° 36' 37"
Sunlit
Object was in daylight at epoch
Visualization orbit readout
Latitude
Unknown
Longitude
Unknown
Altitude
Unknown
Speed
Unknown
Apparent Right ascension
Unknown
Apparent Declination
Unknown
Sunlit
N/A
Visualization observer readout
Local Sidereal Time
14:58:01
Azimuth
Unknown
Elevation
Unknown
Doppler factor
Unknown
Orbital elements
Apogee altitude
661.522 km
Perigee altitude
646.167 km
Semi-major axis
7,031.982 km
Eccentricity
0.00109
Inclination
74.0418°
RAAN
332.7481°
Arg. of periapsis
304.2739°
True anomaly
207.85909°
Mean anomaly
207.9176°
Eccentric anomaly
207.88834°
Mean motion
3.68067 °/min
Orbital period
97.81 mins
BSTAR
0.00070602
Loading maneuver chart data...
Computing Atmospheric mass density...

Documentation

Showing up to 5 results
|